Tracking 19575 objects as of 20-Feb-2019
HD Live streaming from Space Station
objects crossing your sky now

RADUGA 25

Track RADUGA 25 now!
RADUGA 25 is classified as:


NORAD ID: 20499
Int'l Code: 1990-016A
Perigee: 35,806.9 km
Apogee: 35,837.8 km
Inclination: 14.8 °
Period: 1,437.6 minutes
Semi major axis: 42193 km
RCS: 7.9432 m2 (large)
Launch date: February 15, 1990
Source: Commonwealth of Independent States (former USSR) (CIS)
Launch site: TYURATAM MISSILE AND SPACE COMPLEX (TTMTR)
aabbcc
Your satellite tracking list
Your tracking list is empty




NASA's NSSDC Master Catalog

Two Line Element Set (TLE):
1 20499U 90016A   19050.31472492 -.00000206 +00000-0 +00000-0 0  9996
2 20499 014.7657 356.6493 0003660 328.5174 208.5825 01.00169763106085
Source of the keplerian elements: AFSPC